Time,TemperatureF,DewpointF,PressureIn,WindDirection,WindDirectionDegrees,WindSpeedMPH,WindSpeedGustMPH,Humidity,HourlyPrecipIn,Conditions,Clouds,dailyrainin,SoftwareType,DateUTC
2013-06-10 00:00:00,24.0,22.0,30.18,NNE,25,15.2,16.4,92,0.00, ,,-99.99,VWS V12.07,2013-06-10 04:00:00,
2013-06-10 00:02:00,75.2,72.8,30.18,SSE,164,11.4,16.4,92,0.00, ,,-99.99,VWS V12.07,2013-06-10 04:02:00,
2013-06-10 00:05:00,75.2,72.9,30.18,South,187,13.4,16.4,93,0.00, ,,-99.99,VWS V12.07,2013-06-10 04:05:00,
2013-06-10 00:09:00,75.4,73.2,30.18,SSW,201,14.0,19.9,93,0.00, ,,-99.99,VWS V12.07,2013-06-10 04:09:00,
2013-06-10 00:15:00,75.2,72.9,30.18,SSW,197,12.2,19.9,93,0.00, ,,-99.99,VWS V12.07,2013-06-10 04:15:00,
2013-06-10 00:16:00,75.6,73.3,30.18,SW,215,12.1,12.7,93,0.00, ,,-99.99,VWS V12.07,2013-06-10 04:16:00,
2013-06-10 00:22:00,75.2,73.1,30.17,SSW,199,13.0,17.1,93,0.00, ,,-99.99,VWS V12.07,2013-06-10 04:22:00,
2013-06-10 00:28:00,75.3,73.1,30.17,SSW,209,14.7,19.1,93,0.00, ,,-99.99,VWS V12.07,2013-06-10 04:28:00,
2013-06-10 00:34:00,75.2,73.1,30.17,South,178,15.7,19.1,93,0.00, ,,-99.99,VWS V12.07,2013-06-10 04:34:00,
2013-06-10 00:40:00,75.3,73.2,30.17,SSW,198,17.5,19.9,93,0.00, ,,-99.99,VWS V12.07,2013-06-10 04:40:00,
2013-06-10 00:45:00,75.7,73.7,30.17,SSW,213,9.1,19.9,94,0.00, ,,-99.99,VWS V12.07,2013-06-10 04:45:00,
2013-06-10 00:51:00,75.0,73.0,30.17,South,187,16.1,19.9,94,0.00, ,,-99.99,VWS V12.07,2013-06-10 04:51:00,
2013-06-10 00:57:00,75.7,73.8,30.16,SSW,192,10.9,16.2,94,0.00, ,,-99.99,VWS V12.07,2013-06-10 04:57:00,
2013-06-10 01:03:00,75.3,73.5,30.16,SSW,192,9.8,16.2,94,0.00, ,,-99.99,VWS V12.07,2013-06-10 05:03:00,
2013-06-10 01:09:00,75.5,73.8,30.16,South,191,9.6,16.2,94,0.00, ,,-99.99,VWS V12.07,2013-06-10 05:09:00,
2013-06-10 01:15:00,75.8,74.1,30.16,SSW,204,10.3,16.2,95,0.00, ,,-99.99,VWS V12.07,2013-06-10 05:15:00,
2013-06-10 01:20:00,75.7,73.9,30.16,SW,216,7.0,10.6,94,0.00, ,,-99.99,VWS V12.07,2013-06-10 05:20:00,
2013-06-10 01:25:00,75.5,73.7,30.16,SSW,194,10.8,14.2,94,0.00, ,,-99.99,VWS V12.07,2013-06-10 05:25:00,
2013-06-10 01:30:00,75.2,73.4,30.16,SSW,197,14.8,16.1,94,0.00, ,,-99.99,VWS V12.07,2013-06-10 05:30:00,
2013-06-10 01:36:00,74.9,72.8,30.16,SW,216,14.5,20.2,93,0.00, ,,-99.99,VWS V12.07,2013-06-10 05:36:00,
2013-06-10 01:42:00,75.2,73.1,30.15,SSW,206,12.0,15.9,93,0.00, ,,-99.99,VWS V12.07,2013-06-10 05:42:00,
2013-06-10 01:47:00,75.3,73.1,30.15,SSW,202,11.9,15.9,93,0.00, ,,-99.99,VWS V12.07,2013-06-10 05:47:00,
2013-06-10 01:53:00,75.7,27.8,30.15,South,178,9.0,15.9,17,0.00, ,,-99.99,VWS V12.07,2013-06-10 05:53:00,
2013-06-10 02:00:00,75.1,73.0,30.15,South,184,7.7,15.9,93,0.00, ,,-99.99,VWS V12.07,2013-06-10 06:00:00,
2013-06-10 02:05:00,75.6,73.7,30.14,SSW,205,9.1,15.9,94,0.00, ,,-99.99,VWS V12.07,2013-06-10 06:05:00,
2013-06-10 02:13:00,75.3,73.3,30.14,SSW,206,15.2,16.6,94,0.00, ,,-99.99,VWS V12.07,2013-06-10 06:13:00,
2013-06-10 02:19:00,75.0,73.0,30.14,SSW,194,14.7,14.7,94,0.00, ,,-99.99,VWS V12.07,2013-06-10 06:19:00,
2013-06-10 02:25:00,75.4,73.5,30.14,SSW,205,13.0,14.7,94,0.00, ,,-99.99,VWS V12.07,2013-06-10 06:25:00,
2013-06-10 02:30:00,75.4,73.4,30.14,SSW,197,10.4,14.7,93,0.00, ,,-99.99,VWS V12.07,2013-06-10 06:30:00,
2013-06-10 02:35:00,75.8,73.8,30.14,SW,225,7.9,15.3,94,0.00, ,,-99.99,VWS V12.07,2013-06-10 06:35:00,
2013-06-10 02:40:00,75.4,73.5,30.14,South,191,14.4,15.0,94,0.00, ,,-99.99,VWS V12.07,2013-06-10 06:40:00,
2013-06-10 02:45:00,75.1,73.2,30.14,SSW,204,13.4,16.3,94,0.00, ,,-99.99,VWS V12.07,2013-06-10 06:45:00,
2013-06-10 02:50:00,75.3,73.5,30.13,SSW,197,7.5,16.3,94,0.00, ,,-99.99,VWS V12.07,2013-06-10 06:50:00,
2013-06-10 02:57:00,75.8,74.0,30.13,SW,215,8.9,8.9,94,0.00, ,,-99.99,VWS V12.07,2013-06-10 06:57:00,
2013-06-10 03:04:00,75.2,73.4,30.13,SSW,209,7.7,12.5,94,0.00, ,,-99.99,VWS V12.07,2013-06-10 07:04:00,
2013-06-10 03:09:00,75.6,73.8,30.13,SSW,213,5.3,12.6,94,0.00, ,,-99.99,VWS V12.07,2013-06-10 07:09:00,
2013-06-10 03:14:00,75.8,74.1,30.13,SSW,195,9.4,12.6,94,0.00, ,,-99.99,VWS V12.07,2013-06-10 07:14:00,
2013-06-10 03:20:00,75.9,74.2,30.13,SW,229,8.5,9.0,94,0.00, ,,-99.99,VWS V12.07,2013-06-10 07:20:00,
2013-06-10 03:26:00,75.7,73.9,30.13,SSW,198,7.6,10.5,94,0.00, ,,-99.99,VWS V12.07,2013-06-10 07:26:00,
2013-06-10 03:31:00,75.8,74.0,30.13,South,184,6.9,11.0,94,0.00, ,,-99.99,VWS V12.07,2013-06-10 07:31:00,
2013-06-10 03:37:00,75.9,74.1,30.13,South,181,6.4,11.4,94,0.00, ,,-99.99,VWS V12.07,2013-06-10 07:37:00,
2013-06-10 03:42:00,75.9,74.1,30.12,South,184,5.7,11.4,94,0.00, ,,-99.99,VWS V12.07,2013-06-10 07:42:00,
2013-06-10 03:48:00,76.1,74.3,30.13,South,173,5.1,11.4,94,0.00, ,,-99.99,VWS V12.07,2013-06-10 07:48:00,
2013-06-10 03:53:00,75.8,74.0,30.13,SSW,192,6.3,11.4,94,0.00, ,,-99.99,VWS V12.07,2013-06-10 07:53:00,
2013-06-10 04:00:00,76.1,74.4,30.13,SSW,211,5.7,10.3,94,0.00, ,,-99.99,VWS V12.07,2013-06-10 08:00:00,
2013-06-10 04:05:00,75.9,74.2,30.13,South,181,7.8,13.6,94,0.00, ,,-99.99,VWS V12.07,2013-06-10 08:05:00,
2013-06-10 04:11:00,76.3,74.5,30.13,SW,215,0.0,13.6,94,0.00, ,,-99.99,VWS V12.07,2013-06-10 08:11:00,
2013-06-10 04:17:00,75.5,73.8,30.12,SSW,202,8.1,13.6,94,0.00, ,,-99.99,VWS V12.07,2013-06-10 08:17:00,
2013-06-10 04:22:00,76.0,74.2,30.13,SSW,209,8.3,13.6,94,0.00, ,,-99.99,VWS V12.07,2013-06-10 08:22:00,
2013-06-10 04:28:00,76.2,74.4,30.12,South,185,7.8,13.6,94,0.00, ,,-99.99,VWS V12.07,2013-06-10 08:28:00,
2013-06-10 04:34:00,76.2,74.5,30.13,SSW,206,7.8,14.8,94,0.00, ,,-99.99,VWS V12.07,2013-06-10 08:34:00,
2013-06-10 04:41:00,12.3,11.0,30.12,NNE,25,6.3,14.7,94,0.00, ,,-99.99,VWS V12.07,2013-06-10 08:41:00,
2013-06-10 04:46:00,76.3,74.6,30.12,South,177,9.0,14.7,94,0.00, ,,-99.99,VWS V12.07,2013-06-10 08:46:00,
2013-06-10 04:52:00,76.5,74.9,30.12,SSW,202,6.5,14.7,95,0.00, ,,-99.99,VWS V12.07,2013-06-10 08:52:00,
2013-06-10 04:59:00,75.6,73.9,30.12,SSW,209,12.2,15.3,95,0.00, ,,-99.99,VWS V12.07,2013-06-10 08:59:00,
2013-06-10 05:04:00,76.1,74.4,30.12,SW,215,14.5,16.5,95,0.00, ,,-99.99,VWS V12.07,2013-06-10 09:04:00,
2013-06-10 05:10:00,76.2,74.6,30.13,SSW,209,8.6,16.8,95,0.00, ,,-99.99,VWS V12.07,2013-06-10 09:10:00,
2013-06-10 05:15:00,76.1,74.4,30.12,SSW,213,9.7,16.8,95,0.00, ,,-99.99,VWS V12.07,2013-06-10 09:15:00,
2013-06-10 05:21:00,76.0,74.4,30.12,South,173,6.6,13.1,95,0.00, ,,-99.99,VWS V12.07,2013-06-10 09:21:00,
2013-06-10 05:26:00,76.4,74.7,30.12,SW,223,12.1,14.0,95,0.00, ,,-99.99,VWS V12.07,2013-06-10 09:26:00,
2013-06-10 05:32:00,76.1,74.4,30.12,SSW,208,9.8,14.0,94,0.00, ,,-99.99,VWS V12.07,2013-06-10 09:32:00,
2013-06-10 05:38:00,76.1,74.4,30.12,SW,232,12.9,13.7,94,0.00, ,,-99.99,VWS V12.07,2013-06-10 09:38:00,
2013-06-10 05:44:00,76.5,74.8,30.12,SSW,195,10.9,15.6,94,0.00, ,,-99.99,VWS V12.07,2013-06-10 09:44:00,
2013-06-10 05:49:00,75.9,74.2,30.12,SSW,199,12.8,15.6,94,0.00, ,,-99.99,VWS V12.07,2013-06-10 09:49:00,
2013-06-10 05:55:00,76.3,32.1,30.13,SW,223,13.0,19.6,20,0.00, ,,-99.99,VWS V12.07,2013-06-10 09:55:00,
2013-06-10 06:00:00,76.3,74.6,30.13,SW,223,11.2,16.9,94,0.00, ,,-99.99,VWS V12.07,2013-06-10 10:00:00,
2013-06-10 06:06:00,76.5,25.6,30.12,SW,226,12.4,18.3,15,0.00, ,,-99.99,VWS V12.07,2013-06-10 10:06:00,
2013-06-10 06:11:00,76.0,74.2,30.13,SSW,198,9.8,18.3,94,0.00, ,,-99.99,VWS V12.07,2013-06-10 10:11:00,
2013-06-10 06:17:00,76.4,30.3,30.13,SSW,205,9.2,12.6,18,0.00, ,,-99.99,VWS V12.07,2013-06-10 10:17:00,
2013-06-10 06:23:00,76.2,74.4,30.13,SW,219,7.3,16.3,94,0.00, ,,-99.99,VWS V12.07,2013-06-10 10:23:00,
2013-06-10 06:29:00,76.3,74.4,30.13,SSW,208,9.9,16.3,94,0.00, ,,-99.99,VWS V12.07,2013-06-10 10:29:00,
2013-06-10 06:34:00,76.2,68.2,30.13,South,185,11.2,16.3,76,0.00, ,,-99.99,VWS V12.07,2013-06-10 10:34:00,
2013-06-10 06:39:00,76.3,74.4,30.13,SSW,211,8.6,11.1,94,0.00, ,,-99.99,VWS V12.07,2013-06-10 10:39:00,
2013-06-10 06:45:00,76.3,0.0,30.13,SSW,202,11.9,17.3,0,0.00, ,,-99.99,VWS V12.07,2013-06-10 10:45:00,
2013-06-10 06:51:00,76.4,74.6,30.13,SSW,199,10.8,17.3,94,0.00, ,,-99.99,VWS V12.07,2013-06-10 10:51:00,
2013-06-10 06:56:00,76.2,74.3,30.13,SW,229,8.9,9.4,94,0.00, ,,-99.99,VWS V12.07,2013-06-10 10:56:00,
2013-06-10 07:02:00,76.7,74.8,30.13,SSW,198,10.7,14.9,94,0.00, ,,-99.99,VWS V12.07,2013-06-10 11:02:00,
2013-06-10 07:08:00,76.3,74.4,30.13,SW,219,5.3,15.3,94,0.00, ,,-99.99,VWS V12.07,2013-06-10 11:08:00,
2013-06-10 07:13:00,76.9,74.8,30.13,SSW,204,13.7,15.3,93,0.00, ,,-99.99,VWS V12.07,2013-06-10 11:13:00,
2013-06-10 07:19:00,76.7,74.7,30.13,SSW,201,6.6,13.1,93,0.00, ,,-99.99,VWS V12.07,2013-06-10 11:19:00,
2013-06-10 07:25:00,77.0,74.8,30.13,SSW,211,14.4,14.5,93,0.00, ,,-99.99,VWS V12.07,2013-06-10 11:25:00,
2013-06-10 07:30:00,76.8,74.6,30.13,SSW,198,11.1,15.0,93,0.00, ,,-99.99,VWS V12.07,2013-06-10 11:30:00,
2013-06-10 07:36:00,77.1,29.1,30.13,SSW,205,10.6,12.2,17,0.00, ,,-99.99,VWS V12.07,2013-06-10 11:36:00,
2013-06-10 07:41:00,77.3,74.9,30.13,SW,226,8.8,13.2,92,0.00, ,,-99.99,VWS V12.07,2013-06-10 11:41:00,
2013-06-10 07:47:00,77.0,74.6,30.13,SSW,195,8.9,15.6,92,0.00, ,,-99.99,VWS V12.07,2013-06-10 11:47:00,
2013-06-10 07:53:00,77.3,74.9,30.13,SSW,199,10.6,15.6,92,0.00, ,,-99.99,VWS V12.07,2013-06-10 11:53:00,
2013-06-10 07:58:00,77.1,74.8,30.14,SSW,204,11.9,17.3,93,0.00, ,,-99.99,VWS V12.07,2013-06-10 11:58:00,
2013-06-10 08:04:00,77.1,74.9,30.14,SSW,205,10.5,17.3,93,0.00, ,,-99.99,VWS V12.07,2013-06-10 12:04:00,
2013-06-10 08:09:00,76.5,74.4,30.14,SSW,198,16.4,17.3,93,0.00, ,,-99.99,VWS V12.07,2013-06-10 12:09:00,
2013-06-10 08:15:00,76.8,74.6,30.14,SW,222,9.2,17.3,93,0.00, ,,-99.99,VWS V12.07,2013-06-10 12:15:00,
2013-06-10 08:20:00,76.9,74.6,30.14,SW,220,14.2,14.8,92,0.00, ,,-99.99,VWS V12.07,2013-06-10 12:20:00,
2013-06-10 08:26:00,77.4,75.1,30.14,SSW,211,15.3,16.5,93,0.00, ,,-99.99,VWS V12.07,2013-06-10 12:26:00,
2013-06-10 08:31:00,77.3,74.7,30.14,SW,218,13.0,16.5,92,0.00, ,,-99.99,VWS V12.07,2013-06-10 12:31:00,
2013-06-10 08:37:00,77.2,74.7,30.14,SSW,212,10.7,13.2,92,0.00, ,,-99.99,VWS V12.07,2013-06-10 12:37:00,
2013-06-10 08:42:00,77.2,74.6,30.14,SSW,198,11.6,14.2,92,0.00, ,,-99.99,VWS V12.07,2013-06-10 12:42:00,
2013-06-10 08:48:00,77.3,74.7,30.14,SW,215,10.0,17.7,92,0.00, ,,-99.99,VWS V12.07,2013-06-10 12:48:00,
2013-06-10 08:54:00,77.7,75.0,30.14,South,177,10.5,17.7,91,0.00, ,,-99.99,VWS V12.07,2013-06-10 12:54:00,
2013-06-10 09:00:00,77.9,75.2,30.14,SSW,202,8.7,15.8,91,0.00, ,,-99.99,VWS V12.07,2013-06-10 13:00:00,
2013-06-10 09:05:00,77.8,75.0,30.14,SSW,194,8.0,15.8,91,0.00, ,,-99.99,VWS V12.07,2013-06-10 13:05:00,
2013-06-10 09:10:00,77.7,74.8,30.14,SSW,199,6.7,15.8,91,0.00, ,,-99.99,VWS V12.07,2013-06-10 13:10:00,
2013-06-10 09:15:00,78.0,75.2,30.14,SSW,202,10.6,16.5,91,0.00, ,,-99.99,VWS V12.07,2013-06-10 13:15:00,
2013-06-10 09:22:00,77.2,74.6,30.14,SSW,204,11.3,16.0,92,0.00, ,,-99.99,VWS V12.07,2013-06-10 13:22:00,
2013-06-10 09:28:00,77.4,30.9,30.14,SSW,213,9.8,16.0,18,0.00, ,,-99.99,VWS V12.07,2013-06-10 13:28:00,
2013-06-10 09:34:00,77.9,74.9,30.14,SSW,212,10.3,16.0,91,0.00, ,,-99.99,VWS V12.07,2013-06-10 13:34:00,
2013-06-10 09:40:00,78.0,75.1,30.14,South,190,9.1,15.5,91,0.00, ,,-99.99,VWS V12.07,2013-06-10 13:40:00,
2013-06-10 09:45:00,78.0,75.1,30.13,SW,219,6.2,15.5,91,0.00, ,,-99.99,VWS V12.07,2013-06-10 13:45:00,
2013-06-10 09:50:00,77.7,74.8,30.14,SSW,208,11.2,15.5,91,0.00, ,,-99.99,VWS V12.07,2013-06-10 13:50:00,
2013-06-10 09:57:00,77.9,74.8,30.13,SW,219,11.5,14.7,90,2.25, ,,-99.99,VWS V12.07,2013-06-10 13:57:00,
2013-06-10 10:03:00,77.5,74.4,30.13,SW,216,12.9,18.2,90,2.25, ,,-99.99,VWS V12.07,2013-06-10 14:03:00,
2013-06-10 10:10:00,78.2,75.3,30.14,SW,222,9.3,18.2,91,2.25, ,,-99.99,VWS V12.07,2013-06-10 14:10:00,
2013-06-10 10:15:00,77.7,74.6,30.13,SW,223,13.6,18.2,90,2.25, ,,-99.99,VWS V12.07,2013-06-10 14:15:00,
2013-06-10 10:20:00,77.8,74.9,30.14,SSW,198,12.9,16.1,91,0.00, ,,-99.99,VWS V12.07,2013-06-10 14:20:00,
2013-06-10 10:26:00,77.7,74.7,30.13,South,190,10.9,17.8,90,0.00, ,,-99.99,VWS V12.07,2013-06-10 14:26:00,
2013-06-10 10:31:00,78.0,75.0,30.13,SSW,192,14.4,17.8,90,0.00, ,,-99.99,VWS V12.07,2013-06-10 14:31:00,
2013-06-10 10:36:00,77.8,74.8,30.13,SW,226,14.9,16.8,90,0.00, ,,-99.99,VWS V12.07,2013-06-10 14:36:00,
2013-06-10 10:42:00,77.7,74.7,30.13,SSW,194,12.3,19.4,90,0.00, ,,-99.99,VWS V12.07,2013-06-10 14:42:00,
2013-06-10 10:47:00,77.8,75.0,30.13,SSW,195,11.3,19.4,91,0.00, ,,-99.99,VWS V12.07,2013-06-10 14:47:00,
2013-06-10 10:53:00,78.1,75.0,30.13,SSW,205,13.7,19.4,90,0.00, ,,-99.99,VWS V12.07,2013-06-10 14:53:00,
2013-06-10 10:58:00,78.1,74.9,30.13,SSW,212,10.9,24.5,90,0.00, ,,-99.99,VWS V12.07,2013-06-10 14:58:00,
2013-06-10 11:04:00,78.4,74.8,30.13,SSW,206,14.5,24.5,89,0.00, ,,-99.99,VWS V12.07,2013-06-10 15:04:00,
2013-06-10 11:09:00,79.0,75.4,30.13,SSE,160,13.8,24.5,89,0.00, ,,-99.99,VWS V12.07,2013-06-10 15:09:00,
2013-06-10 11:14:00,79.2,75.3,30.13,SSW,212,17.0,24.5,88,0.00, ,,-99.99,VWS V12.07,2013-06-10 15:14:00,
2013-06-10 11:21:00,79.0,74.9,30.13,SSW,201,15.4,18.1,87,0.00, ,,-99.99,VWS V12.07,2013-06-10 15:21:00,
2013-06-10 11:26:00,79.2,74.8,30.13,SSW,198,12.3,18.1,86,0.00, ,,-99.99,VWS V12.07,2013-06-10 15:26:00,
2013-06-10 11:33:00,79.2,74.8,30.13,SSE,166,11.7,18.8,86,0.00, ,,-99.99,VWS V12.07,2013-06-10 15:33:00,
2013-06-10 11:39:00,79.0,75.1,30.12,SSW,202,13.1,19.1,88,0.00, ,,-99.99,VWS V12.07,2013-06-10 15:39:00,
2013-06-10 11:44:00,78.8,74.3,30.12,South,182,14.5,21.9,86,0.00, ,,-99.99,VWS V12.07,2013-06-10 15:44:00,
2013-06-10 11:50:00,79.0,74.4,30.12,South,188,14.0,21.9,86,0.00, ,,-99.99,VWS V12.07,2013-06-10 15:50:00,
2013-06-10 11:55:00,79.3,74.7,30.12,SW,220,11.4,21.9,86,0.00, ,,-99.99,VWS V12.07,2013-06-10 15:55:00,
2013-06-10 12:01:00,79.5,74.7,30.11,SW,228,13.6,18.2,85,0.00, ,,-99.99,VWS V12.07,2013-06-10 16:01:00,
2013-06-10 12:06:00,79.2,74.3,30.11,SSW,197,16.4,19.9,85,0.00, ,,-99.99,VWS V12.07,2013-06-10 16:06:00,
2013-06-10 12:12:00,78.8,73.8,30.11,SW,215,18.8,22.2,85,0.00, ,,-99.99,VWS V12.07,2013-06-10 16:12:00,
2013-06-10 12:18:00,79.2,75.0,30.11,SSW,198,14.2,18.1,87,0.00, ,,-99.99,VWS V12.07,2013-06-10 16:18:00,
2013-06-10 12:23:00,78.9,71.8,30.11,South,191,16.1,21.7,79,0.00, ,,-99.99,VWS V12.07,2013-06-10 16:23:00,
2013-06-10 12:28:00,78.7,73.7,30.11,SW,222,19.2,22.7,85,0.00, ,,-99.99,VWS V12.07,2013-06-10 16:28:00,
2013-06-10 12:34:00,78.3,74.1,30.11,SSW,209,16.7,23.7,87,0.07, ,,-99.99,VWS V12.07,2013-06-10 16:34:00,
2013-06-10 12:39:00,78.9,74.5,30.11,SW,232,15.0,19.7,86,0.00, ,,-99.99,VWS V12.07,2013-06-10 16:39:00,
2013-06-10 12:46:00,79.2,74.7,30.11,SSW,204,15.1,22.2,86,0.00, ,,-99.99,VWS V12.07,2013-06-10 16:46:00,
2013-06-10 12:52:00,78.9,74.4,30.11,West,270,6.8,24.8,86,0.00, ,,-99.99,VWS V12.07,2013-06-10 16:52:00,
2013-06-10 12:57:00,78.9,74.2,30.11,SW,219,14.7,16.5,86,0.00, ,,-99.99,VWS V12.07,2013-06-10 16:57:00,
2013-06-10 13:03:00,78.2,73.9,30.11,SW,220,21.4,26.5,87,0.00, ,,-99.99,VWS V12.07,2013-06-10 17:03:00,
2013-06-10 13:09:00,79.2,74.8,30.11,SSW,208,16.0,26.5,86,0.00, ,,-99.99,VWS V12.07,2013-06-10 17:09:00,
2013-06-10 13:15:00,78.7,74.5,30.10,SSW,195,16.3,26.5,87,0.00, ,,-99.99,VWS V12.07,2013-06-10 17:15:00,
2013-06-10 13:20:00,78.7,74.3,30.10,SSW,198,16.1,28.0,86,0.00, ,,-99.99,VWS V12.07,2013-06-10 17:20:00,
2013-06-10 13:25:00,79.3,74.5,30.10,SSW,213,8.0,28.0,85,0.00, ,,-99.99,VWS V12.07,2013-06-10 17:25:00,
2013-06-10 13:31:00,79.2,74.2,30.09,South,171,16.8,28.0,85,0.00, ,,-99.99,VWS V12.07,2013-06-10 17:31:00,
2013-06-10 13:36:00,79.2,73.9,30.09,South,188,14.4,15.5,84,0.00, ,,-99.99,VWS V12.07,2013-06-10 17:36:00,
2013-06-10 13:42:00,79.2,74.3,30.09,SSW,194,15.5,24.2,85,0.00, ,,-99.99,VWS V12.07,2013-06-10 17:42:00,
2013-06-10 13:47:00,79.4,74.4,30.09,SSW,212,14.2,24.2,85,0.00, ,,-99.99,VWS V12.07,2013-06-10 17:47:00,
2013-06-10 13:53:00,79.3,74.2,30.09,WSW,237,16.0,24.2,84,0.00, ,,-99.99,VWS V12.07,2013-06-10 17:53:00,
2013-06-10 13:58:00,79.5,74.3,30.08,SSW,205,15.8,21.4,84,0.00, ,,-99.99,VWS V12.07,2013-06-10 17:58:00,
2013-06-10 14:04:00,79.0,42.6,30.08,SSW,208,17.3,29.9,27,0.00, ,,-99.99,VWS V12.07,2013-06-10 18:04:00,
2013-06-10 14:09:00,79.0,73.8,30.08,SSW,192,16.7,29.9,84,0.00, ,,-99.99,VWS V12.07,2013-06-10 18:09:00,
2013-06-10 14:16:00,78.8,74.3,30.08,SSW,194,19.6,29.9,86,0.00, ,,-99.99,VWS V12.07,2013-06-10 18:16:00,
2013-06-10 14:21:00,79.3,74.8,30.07,SSW,199,18.1,29.9,86,0.00, ,,-99.99,VWS V12.07,2013-06-10 18:21:00,
2013-06-10 14:26:00,78.8,74.1,30.07,SW,215,21.9,29.9,86,0.00, ,,-99.99,VWS V12.07,2013-06-10 18:26:00,
2013-06-10 14:33:00,78.7,74.3,30.07,SSW,202,18.0,29.9,86,0.00, ,,-99.99,VWS V12.07,2013-06-10 18:33:00,
2013-06-10 14:38:00,78.9,74.6,30.07,SSW,205,21.6,23.5,87,0.00, ,,-99.99,VWS V12.07,2013-06-10 18:38:00,
2013-06-10 14:44:00,78.8,28.9,30.06,SSW,199,17.1,26.3,16,0.00, ,,-99.99,VWS V12.07,2013-06-10 18:44:00,
2013-06-10 14:49:00,78.3,73.4,30.06,SSW,204,20.4,26.3,85,0.00, ,,-99.99,VWS V12.07,2013-06-10 18:49:00,
2013-06-10 14:55:00,78.8,74.4,30.06,SSW,209,19.1,31.1,86,0.00, ,,-99.99,VWS V12.07,2013-06-10 18:55:00,
2013-06-10 15:01:00,79.8,75.2,30.07,SSW,205,18.0,24.9,86,0.00, ,,-99.99,VWS V12.07,2013-06-10 19:01:00,
2013-06-10 15:06:00,79.4,75.0,30.06,SSW,205,16.4,26.0,86,0.00, ,,-99.99,VWS V12.07,2013-06-10 19:06:00,
2013-06-10 15:12:00,79.4,74.4,30.06,SW,225,19.3,26.0,85,0.00, ,,-99.99,VWS V12.07,2013-06-10 19:12:00,
2013-06-10 15:18:00,79.3,74.6,30.06,SSW,198,14.1,20.9,86,0.00, ,,-99.99,VWS V12.07,2013-06-10 19:18:00,
2013-06-10 15:23:00,79.7,74.9,30.06,SSW,212,13.9,22.9,85,0.00, ,,-99.99,VWS V12.07,2013-06-10 19:23:00,
2013-06-10 15:29:00,79.3,74.5,30.06,SSW,192,16.1,22.9,85,0.00, ,,-99.99,VWS V12.07,2013-06-10 19:29:00,
2013-06-10 15:35:00,84.8,0.0,30.06,WNW,298,17.0,22.9,0,0.00, ,,-99.99,VWS V12.07,2013-06-10 19:35:00,
2013-06-10 15:40:00,79.7,74.9,30.05,SW,226,15.9,22.1,85,0.00, ,,-99.99,VWS V12.07,2013-06-10 19:40:00,
2013-06-10 15:48:00,79.9,74.1,30.05,SW,229,14.8,22.9,82,0.00, ,,-99.99,VWS V12.07,2013-06-10 19:48:00,
2013-06-10 15:53:00,79.9,74.6,30.04,SE,140,6.6,22.9,84,0.00, ,,-99.99,VWS V12.07,2013-06-10 19:53:00,
2013-06-10 15:58:00,79.8,74.6,30.04,SSW,208,12.1,21.6,84,0.00, ,,-99.99,VWS V12.07,2013-06-10 19:58:00,
2013-06-10 16:04:00,79.3,74.4,30.04,SSE,161,13.0,24.2,85,0.00, ,,-99.99,VWS V12.07,2013-06-10 20:04:00,
2013-06-10 16:10:00,79.7,74.7,30.04,SSW,208,14.9,24.2,85,0.00, ,,-99.99,VWS V12.07,2013-06-10 20:10:00,
2013-06-10 16:15:00,80.0,74.9,30.03,SSW,192,15.2,24.2,84,0.00, ,,-99.99,VWS V12.07,2013-06-10 20:15:00,
2013-06-10 16:21:00,79.8,74.7,30.03,SE,145,9.3,23.4,84,0.00, ,,-99.99,VWS V12.07,2013-06-10 20:21:00,
2013-06-10 16:29:00,79.7,74.4,30.03,South,185,15.9,26.8,84,0.00, ,,-99.99,VWS V12.07,2013-06-10 20:29:00,
2013-06-10 16:34:00,79.7,74.8,30.02,South,191,15.8,26.8,85,0.00, ,,-99.99,VWS V12.07,2013-06-10 20:34:00,
2013-06-10 16:39:00,79.1,74.3,30.02,South,190,14.6,23.7,85,0.00, ,,-99.99,VWS V12.07,2013-06-10 20:39:00,
2013-06-10 16:45:00,79.2,74.6,30.02,SW,216,17.5,28.6,86,0.00, ,,-99.99,VWS V12.07,2013-06-10 20:45:00,
2013-06-10 16:51:00,79.1,74.4,30.02,SSW,201,14.2,28.6,86,0.00, ,,-99.99,VWS V12.07,2013-06-10 20:51:00,
2013-06-10 16:56:00,79.7,74.9,30.02,SW,219,17.2,17.2,85,0.00, ,,-99.99,VWS V12.07,2013-06-10 20:56:00,
2013-06-10 17:02:00,79.2,74.6,30.02,SSW,198,15.7,29.9,86,0.00, ,,-99.99,VWS V12.07,2013-06-10 21:02:00,
2013-06-10 17:08:00,79.2,74.8,30.02,SSW,209,17.3,29.9,86,0.00, ,,-99.99,VWS V12.07,2013-06-10 21:08:00,
2013-06-10 17:13:00,79.0,74.3,30.02,South,184,11.1,29.9,86,0.00, ,,-99.99,VWS V12.07,2013-06-10 21:13:00,
2013-06-10 17:19:00,79.5,74.6,30.02,SSW,198,21.2,26.3,85,0.00, ,,-99.99,VWS V12.07,2013-06-10 21:19:00,
2013-06-10 17:24:00,79.3,74.7,30.02,SW,229,19.4,26.3,86,0.00, ,,-99.99,VWS V12.07,2013-06-10 21:24:00,
2013-06-10 17:33:00,79.4,74.9,30.02,South,173,13.6,26.3,86,0.00, ,,-99.99,VWS V12.07,2013-06-10 21:33:00,
2013-06-10 17:38:00,79.4,75.1,30.02,SW,216,15.4,25.5,87,0.00, ,,-99.99,VWS V12.07,2013-06-10 21:38:00,
2013-06-10 17:43:00,79.1,74.8,30.02,South,190,13.9,25.5,87,0.00, ,,-99.99,VWS V12.07,2013-06-10 21:43:00,
2013-06-10 17:50:00,78.2,74.4,30.02,SSW,209,15.2,25.5,88,0.00, ,,-99.99,VWS V12.07,2013-06-10 21:50:00,
2013-06-10 17:55:00,78.7,75.2,30.02,South,190,17.2,25.5,89,0.00, ,,-99.99,VWS V12.07,2013-06-10 21:55:00,
2013-06-10 18:00:00,78.9,75.2,30.02,SSE,167,13.5,29.6,88,0.00, ,,-99.99,VWS V12.07,2013-06-10 22:00:00,
2013-06-10 18:08:00,78.8,75.1,30.02,SW,225,19.6,29.6,88,0.00, ,,-99.99,VWS V12.07,2013-06-10 22:08:00,
2013-06-10 18:13:00,79.0,75.7,30.02,SW,219,16.5,29.6,90,0.00, ,,-99.99,VWS V12.07,2013-06-10 22:13:00,
2013-06-10 18:18:00,78.4,74.9,30.02,South,185,17.8,24.4,89,2.21, ,,-99.99,VWS V12.07,2013-06-10 22:18:00,
2013-06-10 18:25:00,78.4,75.1,30.02,SW,218,21.1,25.5,90,2.21, ,,-99.99,VWS V12.07,2013-06-10 22:25:00,
2013-06-10 18:30:00,78.4,75.3,30.02,SW,225,23.2,25.5,90,2.21, ,,-99.99,VWS V12.07,2013-06-10 22:30:00,
2013-06-10 18:37:00,77.9,74.8,30.03,SW,215,22.6,23.5,90,0.00, ,,-99.99,VWS V12.07,2013-06-10 22:37:00,
2013-06-10 18:43:00,78.0,75.1,30.04,SSW,206,21.3,29.5,91,0.00, ,,-99.99,VWS V12.07,2013-06-10 22:43:00,
2013-06-10 18:48:00,78.0,75.3,30.04,SW,225,19.5,29.5,92,0.00, ,,-99.99,VWS V12.07,2013-06-10 22:48:00,
2013-06-10 18:53:00,78.3,75.7,30.04,SW,220,18.5,29.5,92,0.00, ,,-99.99,VWS V12.07,2013-06-10 22:53:00,
2013-06-10 19:00:00,77.9,70.4,30.04,SW,226,15.0,24.0,78,0.00, ,,-99.99,VWS V12.07,2013-06-10 23:00:00,
2013-06-10 19:05:00,77.2,74.7,30.04,SW,228,23.5,25.4,92,0.00, ,,-99.99,VWS V12.07,2013-06-10 23:05:00,
2013-06-10 19:11:00,91.7,0.0,30.04,WNW,292,21.2,25.4,0,0.00, ,,-99.99,VWS V12.07,2013-06-10 23:11:00,
2013-06-10 19:17:00,77.9,75.4,30.05,SW,219,18.6,19.6,92,0.00, ,,-99.99,VWS V12.07,2013-06-10 23:17:00,
2013-06-10 19:23:00,77.5,75.0,30.05,SW,228,22.1,28.2,92,0.00, ,,-99.99,VWS V12.07,2013-06-10 23:23:00,
2013-06-10 19:29:00,77.1,74.5,30.04,SW,228,21.7,28.2,92,0.00, ,,-99.99,VWS V12.07,2013-06-10 23:29:00,
2013-06-10 19:34:00,77.3,69.7,30.05,SW,222,19.8,28.8,77,0.00, ,,-99.99,VWS V12.07,2013-06-10 23:34:00,
2013-06-10 19:41:00,77.3,74.6,30.04,SSW,212,20.9,26.3,92,0.00, ,,-99.99,VWS V12.07,2013-06-10 23:41:00,
2013-06-10 19:46:00,77.4,74.9,30.04,SW,225,22.6,26.3,92,0.00, ,,-99.99,VWS V12.07,2013-06-10 23:46:00,
2013-06-10 19:52:00,77.3,74.6,30.05,SW,225,21.3,28.3,91,0.00, ,,-99.99,VWS V12.07,2013-06-10 23:52:00,
2013-06-10 19:57:00,77.2,74.7,30.05,SW,216,18.1,21.9,92,0.00, ,,-99.99,VWS V12.07,2013-06-10 23:57:00,
2013-06-10 20:03:00,77.1,74.8,30.05,SSW,212,19.6,26.4,92,0.00, ,,-99.99,VWS V12.07,2013-06-11 00:03:00,
2013-06-10 20:10:00,77.1,74.7,30.04,SW,215,23.6,28.3,92,0.00, ,,-99.99,VWS V12.07,2013-06-11 00:10:00,
2013-06-10 20:15:00,76.9,75.0,30.04,SW,222,27.0,28.3,94,0.00, ,,-99.99,VWS V12.07,2013-06-11 00:15:00,
2013-06-10 20:21:00,76.7,74.8,30.04,SW,235,24.6,28.3,94,0.00, ,,-99.99,VWS V12.07,2013-06-11 00:21:00,
2013-06-10 20:26:00,77.2,75.5,30.04,SW,229,16.7,28.3,95,0.00, ,,-99.99,VWS V12.07,2013-06-11 00:26:00,
2013-06-10 20:32:00,76.7,74.9,30.04,SW,222,19.8,28.3,94,0.00, ,,-99.99,VWS V12.07,2013-06-11 00:32:00,
2013-06-10 20:38:00,76.9,75.2,30.03,SW,223,19.8,20.6,94,0.00, ,,-99.99,VWS V12.07,2013-06-11 00:38:00,
2013-06-10 20:43:00,76.8,75.1,30.03,SW,226,18.0,22.6,94,0.00, ,,-99.99,VWS V12.07,2013-06-11 00:43:00,
2013-06-10 20:48:00,77.1,75.4,30.03,SW,218,15.8,23.9,94,0.00, ,,-99.99,VWS V12.07,2013-06-11 00:48:00,
2013-06-10 20:55:00,77.2,75.5,30.03,SW,216,16.7,23.9,95,0.00, ,,-99.99,VWS V12.07,2013-06-11 00:55:00,
2013-06-10 21:00:00,76.6,74.9,30.03,SSW,213,20.7,22.6,95,0.00, ,,-99.99,VWS V12.07,2013-06-11 01:00:00,
2013-06-10 21:06:00,76.9,43.1,30.03,SSW,212,18.2,23.1,30,0.00, ,,-99.99,VWS V12.07,2013-06-11 01:06:00,
2013-06-10 21:12:00,77.1,75.5,30.03,SSW,213,18.0,24.9,95,0.00, ,,-99.99,VWS V12.07,2013-06-11 01:12:00,
2013-06-10 21:18:00,76.9,75.3,30.03,SW,223,18.1,20.8,95,0.00, ,,-99.99,VWS V12.07,2013-06-11 01:18:00,
2013-06-10 21:23:00,76.4,74.9,30.03,SSW,195,17.8,22.0,95,0.00, ,,-99.99,VWS V12.07,2013-06-11 01:23:00,
2013-06-10 21:30:00,76.8,75.2,30.03,SSW,213,16.8,22.0,95,0.00, ,,-99.99,VWS V12.07,2013-06-11 01:30:00,
2013-06-10 21:35:00,76.8,75.3,30.03,SW,230,12.1,22.0,95,0.00, ,,-99.99,VWS V12.07,2013-06-11 01:35:00,
2013-06-10 21:43:00,77.1,75.6,30.03,SSW,201,17.3,19.3,95,0.00, ,,-99.99,VWS V12.07,2013-06-11 01:43:00,
2013-06-10 21:48:00,77.5,75.9,30.03,SW,216,12.5,23.7,95,0.00, ,,-99.99,VWS V12.07,2013-06-11 01:48:00,
2013-06-10 21:54:00,76.9,75.4,30.03,SSW,206,12.6,23.7,95,0.00, ,,-99.99,VWS V12.07,2013-06-11 01:54:00,
2013-06-10 22:00:00,76.9,75.2,30.03,SSW,204,20.7,22.2,94,0.00, ,,-99.99,VWS V12.07,2013-06-11 02:00:00,
2013-06-10 22:05:00,76.7,74.9,30.03,SSW,202,14.7,22.9,94,0.00, ,,-99.99,VWS V12.07,2013-06-11 02:05:00,
2013-06-10 22:13:00,77.2,75.4,30.03,SSW,213,23.0,26.5,94,0.00, ,,-99.99,VWS V12.07,2013-06-11 02:13:00,
2013-06-10 22:18:00,77.0,75.3,30.04,SW,225,22.1,29.7,95,0.00, ,,-99.99,VWS V12.07,2013-06-11 02:18:00,
2013-06-10 22:24:00,77.0,75.2,30.04,SSW,192,18.8,29.7,94,0.00, ,,-99.99,VWS V12.07,2013-06-11 02:24:00,
2013-06-10 22:29:00,76.6,75.0,30.04,SW,218,15.9,29.7,95,0.00, ,,-99.99,VWS V12.07,2013-06-11 02:29:00,
2013-06-10 22:35:00,76.9,75.2,30.04,SSW,211,22.7,29.7,95,0.00, ,,-99.99,VWS V12.07,2013-06-11 02:35:00,
2013-06-10 22:41:00,76.1,73.8,30.05,WSW,244,9.7,29.7,92,0.00, ,,-99.99,VWS V12.07,2013-06-11 02:41:00,
2013-06-10 22:47:00,74.9,72.0,30.05,SW,235,13.8,29.7,91,0.00, ,,-99.99,VWS V12.07,2013-06-11 02:47:00,
2013-06-10 22:53:00,75.5,72.6,30.05,SW,225,9.9,29.7,91,0.00, ,,-99.99,VWS V12.07,2013-06-11 02:53:00,
2013-06-10 22:59:00,77.2,75.3,30.05,SSW,199,17.4,21.3,94,0.00, ,,-99.99,VWS V12.07,2013-06-11 02:59:00,
2013-06-10 23:04:00,77.3,75.4,30.05,SW,219,18.1,26.7,94,0.00, ,,-99.99,VWS V12.07,2013-06-11 03:04:00,
2013-06-10 23:09:00,77.2,75.4,30.05,SW,218,21.2,26.7,94,0.00, ,,-99.99,VWS V12.07,2013-06-11 03:09:00,
2013-06-10 23:16:00,77.2,75.3,30.04,SW,223,20.1,20.6,94,0.00, ,,-99.99,VWS V12.07,2013-06-11 03:16:00,
2013-06-10 23:22:00,77.0,75.1,30.04,SW,223,24.1,24.9,94,0.00, ,,-99.99,VWS V12.07,2013-06-11 03:22:00,
2013-06-10 23:28:00,77.0,75.1,30.04,South,191,17.5,26.0,94,0.00, ,,-99.99,VWS V12.07,2013-06-11 03:28:00,
2013-06-10 23:34:00,76.9,75.1,30.04,SW,228,19.9,26.0,94,0.00, ,,-99.99,VWS V12.07,2013-06-11 03:34:00,
2013-06-10 23:39:00,77.1,75.2,30.04,SW,222,21.1,25.0,94,0.00, ,,-99.99,VWS V12.07,2013-06-11 03:39:00,
2013-06-10 23:44:00,77.2,75.4,30.04,South,180,21.8,25.0,94,0.00, ,,-99.99,VWS V12.07,2013-06-11 03:44:00,
2013-06-10 23:50:00,77.0,75.2,30.04,SW,228,19.4,25.8,94,0.00, ,,-99.99,VWS V12.07,2013-06-11 03:50:00,
2013-06-10 23:56:00,76.7,75.0,30.04,SSW,213,23.0,23.0,94,0.00, ,,-99.99,VWS V12.07,2013-06-11 03:56:00,